CZ-3A DEB, 35556

Orbit data source: Space-Track

CZ-3A DEB, 35556 is space debris in HEO originally from a launch on Fri, 02 Feb 2007 UTC launched from the Xichang Space Center, China (XSC). Debris objects in space refer to the collection of defunct objects orbiting the Earth. Examples of debris include non-operational satellites, rocket bodies, and fragments generated from explosions, collisions, or faulty payload assembly.

Not visible in the next 10 days
Identifier
35556, 2007-003Q
Orbit
HEO
Country
Flag of CNCN / PRC
Related business
Manufacturer
Unknown
Mission
Spacecraft
Bus & Motor
Unknown
Mass
Unknown
Launch date (UTC)
2007-02-02 (19 years ago)
Launch vehicle
Unknown
Launch site
Xichang Space Center, China (XSC)
Object type
Payload
Rocket body
Debris
Shape & HBR
Unknown shape, 0.3 m
Radar Cross Section
Medium (>0.1 m² and <1 m²)

Expand to show TLE details & history
Last TLE update: 2 days ago

TLE from 2 days ago
0 CZ-3A DEB
1 35556U 07003Q   26171.26865892  .00000429  00000-0  24935-2 0  9997
2 35556  25.2616 260.1029 7195461  51.0708 353.4020  2.27161636 15548
Epoch: 2026-06-20T06:26Z
TLE epoch observation values (Epoch: 2026-06-20T06:26:52.130Z)
Latitude
-0.00009°
Longitude
-105.01312°
Altitude
1,727.688 km
Speed
9.057 km/s
True Right ascension
17h 20m 45s
True Declination
0° 00' 00"
Sunlit
Object was in full shadow at epoch
Visualization orbit readout
Latitude
Unknown
Longitude
Unknown
Altitude
Unknown
Speed
Unknown
Apparent Right ascension
Unknown
Apparent Declination
Unknown
Sunlit
N/A
Visualization observer readout
Local Sidereal Time
00:50:41
Azimuth
Unknown
Elevation
Unknown
Doppler factor
Unknown
Orbital elements
Apogee altitude
35,661.802 km
Perigee altitude
478.478 km
Semi-major axis
24,448.277 km
Eccentricity
0.71955
Inclination
25.2616°
RAAN
260.1029°
Arg. of periapsis
51.0708°
True anomaly
308.33358°
Mean anomaly
353.402°
Eccentric anomaly
337.87426°
Mean motion
0.56777 °/min
Orbital period
634.06 mins
BSTAR
0.0024935
Loading maneuver chart data...
Computing Atmospheric mass density...
Loading historical data...
Loading historical data...
Loading historical data...
Loading historical data...
Loading historical data...
Loading historical data...
Loading historical data...

Documentation

Showing up to 5 results
|